Regional Weather Roundup
Issued by NWS Newport/Morehead, NC

Current Version | Previous Version | Graphics & Text | Print | Product List | Glossary Off
Versions: 1 2 3 4 5 6 7 8 9 10 11 12 13 14 15 16 17 18 19 20 21 22 23 24 25 26 27 28 29 30 31 32 33 34 35 36 37 38 39 40 41 42 43 44 45 46 47 48 49 50

000
ASUS42 KMHX 302213
RWRMHX
WEATHER ROUNDUP FOR EASTERN NORTH CAROLINA
NATIONAL WEATHER SERVICE NEWPORT/MOREHEAD CITY NC
600 PM EDT MON MAY 30 2016

NOTE: "FAIR" INDICATES FEW OR NO CLOUDS BELOW 12,000 FEET
WITH NO SIGNIFICANT WEATHER AND/OR OBSTRUCTIONS TO VISIBILITY

NCZ015>017-031-032-045>047-102-103-302300-
NORTH COAST

CITY           SKY/WX    TMP DP  RH WIND       PRES   REMARKS
EDENTON        CLOUDY   N/A N/A N/A SE5       29.96S
ELIZABETH CITY LGT RAIN  73  71  93 SE7       29.97S
KITTY HAWK     RAIN      71  70  95 CALM      29.97S
MANTEO         NOT AVBL

$$

NCZ045>047-081-094-103-104-302300-
CENTRAL COAST

CITY           SKY/WX    TMP DP  RH WIND       PRES   REMARKS
FRISCO         LGT RAIN  73  71  93 S10       29.95F

$$

NCZ095-097-098-100-101-302300-
SOUTHERN COAST

CITY           SKY/WX    TMP DP  RH WIND       PRES   REMARKS
BEAUFORT       CLOUDY    78  71  79 S8        29.92F
CEDAR ISLAND   NOT AVBL
JACKSONVILLE   CLOUDY    80  70  71 SE14      29.91S
PINEY ISLAND   MOCLDY   N/A N/A N/A E6        29.93
WILMINGTON     CLOUDY    79  67  66 E12       29.90R


$$

NCZ011>013-027>030-043-044-078>080-089-090>093-098-302300-
COASTAL PLAIN

CITY           SKY/WX    TMP DP  RH WIND       PRES   REMARKS
AHOSKIE          N/A     75  71  88 SE3       29.96S
CLINTON        RAIN      74  73  96 CALM      29.91R
ELIZABETHTOWN  CLOUDY    74  72  95 E3        29.90S
GOLDSBORO      LGT RAIN  75  75 100 E9        29.91S
GREENVILLE     CLOUDY    75  72  88 SE5       29.96S
HAVELOCK       PTSUNNY   79  71  76 VRB7      29.93F
KENANSVILLE    CLOUDY    74  72  94 CALM      29.92F
KINSTON        CLOUDY    77  70  78 E9        29.93F
NEW BERN       MOSUNNY   77  70  79 E7        29.94S
RICHLANDS      CLOUDY    78  73  84 SE5       29.92R
ROCKY MOUNT    CLOUDY    78  68  71 E3        29.93S
WASHINGTON     CLOUDY    74  71  92 E5        29.94S
WHITEVILLE     CLOUDY    79  70  74 E7        29.88R

$$

AMZ130-135-150-152-154-156-158-170-250-252-270-ANZ085-086-088-633-658-670-302300-
MARINE OBSERVATIONS

STATION/POSITION TIME  TEMP    WIND        PRES    WAVE   SWELL
                       AIR SEA DIR/SP/G            HT/PER HT/PER
                 (UTC) (F)     (DEG/KT/KT) (MB)    (FT/S) (FT/S)
CHESAPEAKE LIGHT 2200   69     170/  8/  8 1015.7
64 E VA BEACH    2150   66 64  210/  2/  4 1015.3    7/ 8   7/ 8
DUCK             2100   63 58  150/  9/ 10 1014.4
2 E DUCK         2111      62                N/A     4/ 8
OREGON INLET     2100   69 76  120/  3/  5 1015.1
13E OREGON INLT  2200      71                N/A     5/ 8   5/ 8
HATTERAS CG      2100   72 75  140/ 13/ 18 1014.1
DIAMOND BUOY     2150   77 80  170/ 16/ 19 1013.6    7/ 8   3/ 8
CAPE LOOKOUT     2200   75     150/  4/  4 1012.8
BEAUFORT LAB     2100   78 74  150/  3/  6 1012.8
30 SE NEW RVR IN 2125      76                N/A     6/ 7
27 SE WRIGHTSVLE 2108   77 76  150/ 10/ 16 1011.7
5 SE WRIGHTSVLE  2108   77 77  130/  6/ 10 1012.9
225 S CAPE HAT   2150   76 76  180/ 10/ 12 1014.5    5/ 8   5/ 8
41 SE CHARLESTON 2150   74 77  200/  8/ 10 1011.3    4/ 8   3/ 8

$$




USA.gov is the U.S. government's official web portal to all federal, state and local government web resources and services.